Tracking 19562 objects as of 22-Mar-2019
HD Live streaming from Space Station
objects crossing your sky now

COSMOS 637

Track COSMOS 637 now!
COSMOS 637 is classified as:


NORAD ID: 7229
Int'l Code: 1974-017A
Perigee: 35,466.5 km
Apogee: 35,836.4 km
Inclination: 7.3 °
Period: 1,428.8 minutes
Semi major axis: 42022 km
RCS: 2.5118 m2 (large)
Launch date: March 26, 1974
Source: Commonwealth of Independent States (former USSR) (CIS)
Launch site: TYURATAM MISSILE AND SPACE COMPLEX (TTMTR)
aabbcc
Your satellite tracking list
Your tracking list is empty




NASA's NSSDC Master Catalog

Two Line Element Set (TLE):
1  7229U 74017A   19080.69802406 +.00000025 +00000-0 +00000-0 0  9999
2  7229 007.3187 299.9290 0044019 349.9273 358.5244 01.00781541095544
Source of the keplerian elements: AFSPC